"timestamp";"minute";"mean_h";"std_h";"mean_l";"std_l"
2019-10-31T23:00:56;1;-120.5462;2.2478495;-120.49836;2.4054313
2019-10-31T23:05:56;1;-120.542206;1.9662415;-120.24212;2.3229024
2019-10-31T23:10:56;1;-120.81538;1.995249;-121.08144;2.0042317
2019-10-31T23:15:56;1;-120.75873;2.0046473;-122.17677;1.5023574
2019-10-31T23:20:56;1;-120.37691;2.107218;-119.6655;2.5805683
2019-10-31T23:25:56;1;-119.92243;2.364206;-120.723045;2.154381
2019-10-31T23:30:56;1;-120.674324;1.8956969;-121.432434;1.6600261
2019-10-31T23:45:56;1;-119.75451;2.5670762;-119.44795;2.7932942
2019-10-31T23:50:56;1;-120.36433;2.0138392;-120.90344;1.7892741
2019-10-31T23:55:56;1;-120.736496;1.7989405;-121.12595;1.6814264
2019-11-01T00:00:56;1;-120.760315;1.6711481;-120.43302;2.011959
2019-11-01T00:05:56;1;-121.07589;1.554012;-121.40164;1.4953871
2019-11-01T00:10:56;1;-119.305275;2.117447;-118.51122;2.400977
2019-11-01T00:15:56;1;-120.69575;1.9026564;-121.31663;1.5844295
2019-11-01T00:20:56;1;-118.80945;2.4693046;-117.37126;3.1004062
2019-11-01T00:25:56;1;-119.62479;2.3273304;-121.18047;1.6297961
2019-11-01T00:30:56;1;-119.674385;2.4015613;-120.02863;2.4178777
2019-11-01T00:35:56;1;-120.7368;2.0154746;-120.957726;2.0466986
2019-11-01T00:40:56;1;-120.63837;1.7302989;-121.179855;1.5333602
2019-11-01T00:45:56;1;-120.766136;1.7845937;-121.44112;1.4994147
2019-11-01T00:50:56;1;-120.68693;1.7818531;-120.936745;1.8523097
2019-11-01T00:55:56;1;-120.743416;1.7435762;-121.02276;1.7266899
2019-11-01T01:00:56;1;-120.46896;1.9923258;-121.22045;1.640086
2019-11-01T01:05:56;1;-120.86508;1.7248487;-121.37224;1.5477918
2019-11-01T01:10:56;1;-120.9247;1.7376776;-121.54644;1.4845333
2019-11-01T01:15:56;1;-121.12896;1.7782236;-121.27621;1.79909
2019-11-01T01:20:56;1;-121.073814;1.6065174;-121.11375;1.7999102
2019-11-01T01:25:56;1;-120.86965;1.808202;-121.64141;1.5399295
2019-11-01T01:30:56;1;-121.21576;1.6744878;-121.43359;1.7353817
2019-11-01T01:35:56;1;-120.68493;2.011549;-120.51859;2.3180642
2019-11-01T01:40:56;1;-120.76546;2.011832;-121.20934;1.947448
2019-11-01T01:45:56;1;-120.55738;1.9916393;-120.69015;2.1444595
2019-11-01T01:50:56;1;-120.541275;2.0056264;-121.376305;1.61557
2019-11-01T01:55:56;1;-120.42928;2.084698;-120.867355;1.962543
2019-11-01T02:00:56;1;-120.55965;2.178233;-120.57955;2.3766158
2019-11-01T02:05:56;1;-120.48165;2.1386585;-120.78165;2.0737607
2019-11-01T02:10:56;1;-121.20966;1.665991;-121.68146;1.4561901
2019-11-01T02:15:56;1;-120.43285;1.8015548;-121.164345;1.5353776
2019-11-01T02:20:56;1;-121.0234;1.8308718;-121.471855;1.7506847
2019-11-01T02:25:56;1;-121.153656;1.6519783;-121.73444;1.4796841
2019-11-01T02:30:56;1;-120.38589;1.8851937;-120.367256;2.0667162
2019-11-01T02:35:56;1;-120.71938;1.7408031;-121.17572;1.514096
2019-11-01T02:40:56;1;-120.73785;1.8664268;-121.29232;1.6298548
2019-11-01T02:45:56;1;-120.80742;1.6914028;-120.613716;1.9242325
2019-11-01T02:50:56;1;-120.397156;1.8165191;-121.10245;1.554384
2019-11-01T02:55:56;1;-120.321045;1.8265755;-121.126625;1.6161228
2019-11-01T03:00:56;1;-120.70098;1.7652725;-120.77187;1.8412179
2019-11-01T03:05:56;1;-120.36313;1.9493718;-120.6303;1.8770974
2019-11-01T03:10:56;1;-120.08597;1.8333771;-119.74365;1.9591812
2019-11-01T03:15:56;1;-120.70621;1.6533242;-121.07873;1.5088717
2019-11-01T03:20:56;1;-121.03774;1.8258607;-120.800804;2.0825875
2019-11-01T03:25:56;1;-119.87418;2.2118526;-120.0968;2.3449764
2019-11-01T03:30:56;1;-121.12716;1.7636154;-121.04772;1.941891
2019-11-01T03:35:56;1;-120.966995;1.8014079;-121.67079;1.398942
2019-11-01T03:40:56;1;-121.54391;1.6487454;-121.661674;1.6944078
2019-11-01T03:45:56;1;-121.17286;1.7216982;-120.97065;2.0351665
2019-11-01T03:50:56;1;-121.51622;1.6248044;-121.70736;1.6375668
2019-11-01T03:55:56;1;-120.157074;2.0720716;-121.1014;1.845031
2019-11-01T04:00:56;1;-119.932465;2.6176136;-119.695274;2.7408566
2019-11-01T04:05:56;1;-120.930725;1.9963934;-120.58911;2.1894488
2019-11-01T04:10:56;1;-120.85105;1.7497542;-121.05735;1.6166339
2019-11-01T04:15:56;1;-120.91423;1.4564607;-121.04153;1.4316653
2019-11-01T04:20:56;1;-121.41748;1.4267547;-121.52305;1.4618862
2019-11-01T04:25:56;1;-121.25687;1.6712801;-121.80025;1.5059001
2019-11-01T04:30:56;1;-121.62702;1.3275052;-121.56254;1.2821883
2019-11-01T04:35:56;1;-121.34814;1.4306589;-121.25606;1.6256447
2019-11-01T04:40:56;1;-121.07077;1.6222596;-121.19906;1.5931921
2019-11-01T04:45:56;1;-120.80019;1.7625356;-120.856026;1.6942484
2019-11-01T04:50:56;1;-120.79743;1.8753524;-121.20286;1.7468503
2019-11-01T04:55:56;1;-120.73484;1.7750425;-120.60633;1.8585136
2019-11-01T05:00:56;1;-120.57828;1.7898614;-120.9727;1.7683445
2019-11-01T05:05:56;1;-120.88613;1.9844371;-121.678055;1.5370474
2019-11-01T05:10:56;1;-121.07941;1.7608379;-120.938156;1.8730344
2019-11-01T05:15:56;1;-121.30472;1.8607157;-121.65256;1.7465316
2019-11-01T05:20:56;1;-120.969925;1.9331553;-120.800674;2.2352862
2019-11-01T05:25:56;1;-121.0627;1.7901689;-120.91055;1.9988303
2019-11-01T05:30:56;1;-121.560814;1.5536134;-121.562584;1.6954545
2019-11-01T05:35:56;1;-120.76347;2.1724331;-120.172295;2.6346283
2019-11-01T05:40:56;1;-121.43385;1.642848;-121.10743;1.9639205
2019-11-01T05:45:56;1;-121.3805;1.6341628;-121.97548;1.3021653
2019-11-01T05:50:56;1;-119.3294;2.0791395;-119.61225;2.1012728
2019-11-01T05:55:56;1;-120.52499;1.9970403;-121.77054;1.3958439
2019-11-01T06:00:56;1;-118.88713;3.0611033;-121.1147;2.082159
2019-11-01T06:05:56;1;-119.0297;2.8534179;-120.28366;2.3969839
2019-11-01T06:10:56;1;-118.47533;3.1399004;-121.808655;1.2922264
2019-11-01T06:15:56;1;-116.172035;4.458284;-120.9848;2.0920284
2019-11-01T06:20:56;1;-116.453415;4.4721894;-122.12809;1.5916405
2019-11-01T06:25:56;1;-115.18376;5.177153;-122.42132;1.373916
2019-11-01T06:30:56;1;-114.24163;5.5564747;-122.34961;1.3173165
2019-11-01T06:35:56;1;-112.853874;5.9148536;-121.69342;1.2850211
2019-11-01T06:40:56;1;-92.928825;15.700892;-120.93923;1.721528
2019-11-01T06:45:56;1;-93.50112;15.619347;-121.43531;1.5551419
2019-11-01T06:50:56;1;-92.18627;16.356644;-121.70769;1.3514756
2019-11-01T06:55:56;1;-88.46837;18.05341;-121.39102;1.4361356
2019-11-01T07:00:56;1;-87.92516;18.38442;-121.80031;1.2455604
2019-11-01T07:05:56;1;-88.6898;18.144619;-122.01717;1.2618973
2019-11-01T07:10:56;1;-90.23473;17.533169;-122.139305;1.1240269
2019-11-01T07:15:56;1;-91.817726;16.53948;-121.76746;1.1507078
2019-11-01T07:20:56;1;-92.458496;16.205889;-121.852936;1.1704721
2019-11-01T07:25:56;1;-89.96966;17.704323;-122.351585;1.0573331
2019-11-01T07:30:56;1;-91.978386;16.6637;-122.55628;1.0113026
2019-11-01T07:35:56;1;-89.0436;17.959877;-122.28609;1.0457684
2019-11-01T07:40:56;1;-90.692024;16.835672;-122.53024;0.97177595
2019-11-01T07:45:56;1;-88.11197;18.04733;-122.344124;1.0767837
2019-11-01T07:50:56;1;-93.117065;15.848667;-122.25522;1.059345
2019-11-01T07:55:56;1;-94.39831;14.370925;-120.37836;1.0450547
2019-11-01T08:00:56;1;-91.485176;16.23266;-121.42071;0.91103697
2019-11-01T08:05:56;1;-91.0293;16.997782;-122.051285;1.0129882
2019-11-01T08:10:56;1;-89.75737;17.597275;-121.2844;1.359016
2019-11-01T08:15:56;1;-93.825935;15.741491;-121.2917;1.5032613
2019-11-01T08:20:56;1;-91.37444;17.020397;-122.70773;0.9605364
2019-11-01T08:25:56;1;-91.89347;16.681763;-122.34526;0.9437291
2019-11-01T08:30:56;1;-92.03206;16.427757;-122.08731;0.94041824
2019-11-01T08:35:56;1;-90.47041;17.271563;-121.996765;0.98998976
2019-11-01T08:40:56;1;-91.1722;16.598349;-122.37323;0.89383227
2019-11-01T08:45:56;1;-93.995285;15.294904;-122.34339;0.94841504
2019-11-01T08:50:56;1;-96.42981;13.988915;-122.75909;0.8816954
2019-11-01T08:55:56;1;-93.78793;14.876306;-122.25872;0.89638335
2019-11-01T09:00:56;1;-94.02903;14.85335;-122.148636;0.961564
2019-11-01T09:05:56;1;-94.509544;14.205014;-121.895996;0.90446633
2019-11-01T09:10:56;1;-94.29926;15.042236;-122.72371;0.93258935
2019-11-01T09:15:56;1;-95.08395;14.616791;-122.437805;0.9317126
2019-11-01T09:20:56;1;-95.32452;14.392939;-122.1997;0.94148463
2019-11-01T09:25:56;1;-96.076126;14.042618;-122.378174;1.0688561
2019-11-01T09:30:56;1;-93.225296;15.2810755;-122.19955;0.9591549
2019-11-01T09:35:56;1;-92.512566;15.76832;-122.428055;0.8924241
2019-11-01T09:40:56;1;-95.079735;14.500595;-122.76173;0.93724597
2019-11-01T09:45:56;1;-94.34049;14.977977;-122.708885;1.0146545
2019-11-01T09:50:56;1;-95.79701;14.096105;-121.8526;0.9708792
2019-11-01T09:55:56;1;-96.12768;14.138425;-122.29781;1.001659
2019-11-01T10:00:56;1;-97.829704;13.128021;-122.124985;0.9250724
2019-11-01T10:05:56;1;-97.49426;13.302688;-122.29381;0.91002214
2019-11-01T10:10:56;1;-95.934906;14.193581;-122.33145;1.1143974
2019-11-01T10:15:56;1;-94.09583;14.6446295;-121.5908;1.051238
2019-11-01T10:20:56;1;-98.17497;12.820459;-121.69603;0.8922137
2019-11-01T10:25:56;1;-96.022705;14.182292;-122.34328;0.9165683
2019-11-01T10:30:56;1;-97.98217;13.227521;-122.52507;0.93035877
2019-11-01T10:35:56;1;-99.20849;12.442605;-122.1137;0.91735226
2019-11-01T10:40:56;1;-99.41631;12.600052;-122.48647;0.9528604
2019-11-01T10:45:56;1;-98.298996;13.45532;-123.05168;0.91116095
2019-11-01T10:50:56;1;-96.239494;14.104193;-122.965904;0.8803756
2019-11-01T10:55:56;1;-99.69631;12.548927;-123.0461;0.89958256
2019-11-01T11:00:56;1;-93.19634;15.531391;-122.885735;0.9742026
2019-11-01T11:05:56;1;-97.31626;13.663638;-122.71458;0.91456336
2019-11-01T11:10:56;1;-99.675095;12.487144;-123.02995;0.88081914
2019-11-01T11:15:56;1;-95.50801;14.810234;-122.796455;1.0341103
2019-11-01T11:20:56;1;-91.94848;16.544878;-123.25153;0.9887842
2019-11-01T11:25:56;1;-96.33259;14.461574;-122.92099;0.89326364
2019-11-01T11:30:56;1;-95.16193;15.09835;-123.31999;0.9299491
2019-11-01T11:35:56;1;-92.95595;15.769072;-122.88291;0.9758668
2019-11-01T11:40:56;1;-90.56446;17.119581;-122.55775;1.014376
2019-11-01T11:45:56;1;-96.0385;14.8863325;-123.49512;0.92835104
2019-11-01T11:50:56;1;-97.62103;13.875028;-123.5089;0.9961113
2019-11-01T11:55:56;1;-95.18759;14.849522;-123.12255;0.90124285
2019-11-01T12:00:56;1;-104.82858;10.575832;-123.12118;0.9645295
2019-11-01T12:05:56;1;-95.538246;15.086629;-122.846695;0.9097713
2019-11-01T12:10:56;1;-98.11883;13.616444;-122.81843;0.93294555
2019-11-01T12:15:56;1;-89.57898;17.77846;-122.58589;0.9184924
2019-11-01T12:20:56;1;-97.23268;14.245598;-123.180695;0.94301367
2019-11-01T12:25:56;1;-100.90549;12.111847;-122.783936;1.0162038
2019-11-01T12:30:56;1;-92.67571;16.280746;-122.657166;0.93867105
2019-11-01T12:35:56;1;-99.98378;12.83376;-122.9571;0.95133644
2019-11-01T12:40:56;1;-100.406494;12.70599;-123.11786;0.8623022
2019-11-01T12:45:56;1;-88.39558;17.970257;-122.95983;0.9596314
2019-11-01T12:50:56;1;-94.86476;15.163192;-122.78245;0.9099078
2019-11-01T12:55:56;1;-91.03696;16.680153;-122.765205;0.8723472
2019-11-01T13:00:56;1;-97.72261;14.271133;-123.11172;1.1463258
2019-11-01T13:05:56;1;-99.205086;13.05783;-122.59126;0.9306393
2019-11-01T13:10:56;1;-94.09891;15.737525;-122.644;0.94181246
2019-11-01T13:15:56;1;-95.6631;15.150178;-123.06531;0.92301184
2019-11-01T13:20:56;1;-96.505394;14.017181;-121.41203;0.87371504
2019-11-01T13:25:56;1;-91.58357;16.453547;-121.41274;0.93727446
2019-11-01T13:30:56;1;-97.04285;13.777346;-121.67463;1.0501785
2019-11-01T13:35:56;1;-94.69031;15.092441;-122.161285;0.88127816
2019-11-01T13:40:56;1;-96.25534;14.474284;-122.24383;0.9444166
2019-11-01T13:45:56;1;-92.970345;15.977394;-122.211494;1.068455
2019-11-01T13:50:56;1;-93.534096;16.213669;-123.02767;0.96331674
2019-11-01T13:55:56;1;-95.30261;14.644567;-123.01317;0.89840245
2019-11-01T14:00:56;1;-94.65152;14.716382;-122.076416;1.0100707
2019-11-01T14:05:56;1;-98.05783;13.062714;-121.95535;0.9067722
2019-11-01T14:10:56;1;-93.21541;15.47002;-121.80956;0.91708964
2019-11-01T14:15:56;1;-93.00306;15.459523;-122.10785;0.9663506
2019-11-01T14:20:56;1;-93.32957;15.676234;-122.325;0.99149936
2019-11-01T14:25:56;1;-95.99331;13.965406;-122.17424;0.92604077
2019-11-01T14:30:56;1;-92.87015;15.6616745;-122.31483;0.9442252
2019-11-01T14:35:56;1;-88.70174;17.59417;-121.95587;0.948195
2019-11-01T14:40:56;1;-94.47702;14.079226;-122.014145;0.956061
2019-11-01T14:45:56;1;-91.09942;16.883434;-122.69619;0.8762794
2019-11-01T14:50:56;1;-89.216385;17.770523;-122.35537;0.9312286
2019-11-01T14:55:56;1;-90.65991;17.290178;-122.46526;0.9577976
2019-11-01T15:00:56;1;-93.732056;15.3961935;-122.54951;0.9361389
2019-11-01T15:05:56;1;-88.5586;18.481863;-122.29988;1.1573514
2019-11-01T15:10:56;1;-91.65797;16.590961;-122.429985;1.060419
2019-11-01T15:15:56;1;-87.26247;17.828194;-122.16583;1.0784844
2019-11-01T15:20:56;1;-94.88908;14.787032;-122.489174;0.9846396
2019-11-01T15:25:56;1;-88.88187;18.237867;-122.460846;1.0276169
2019-11-01T15:30:56;1;-92.798;15.597435;-122.4601;0.9880661
2019-11-01T15:35:56;1;-91.08535;16.950493;-122.27155;0.91766477
2019-11-01T15:40:56;1;-93.99914;15.378538;-122.129654;0.9457031
2019-11-01T15:45:56;1;-89.00917;17.966791;-122.12454;0.94554436
2019-11-01T15:50:56;1;-87.35304;18.731491;-122.063255;0.939551
2019-11-01T15:55:56;1;-95.27109;14.828796;-122.37905;1.0718861
2019-11-01T16:00:56;1;-91.99563;15.890898;-122.25677;1.0036366
2019-11-01T16:05:56;1;-95.55811;14.116522;-121.93199;1.0764985
2019-11-01T16:10:56;1;-89.759415;17.125923;-121.56725;0.9430159
2019-11-01T16:15:56;1;-118.88023;2.8553343;-121.76009;1.0681247
2019-11-01T16:20:56;1;-120.48548;1.941175;-121.85431;1.2087371
2019-11-01T16:25:56;1;-120.48896;2.1254768;-122.10504;1.183801
2019-11-01T16:30:56;1;-121.8114;1.4577222;-122.431114;1.2426467
2019-11-01T16:35:56;1;-121.828476;1.3444465;-122.314;1.2335325
2019-11-01T16:40:56;1;-122.06588;1.3429898;-122.465355;1.1299014
2019-11-01T16:45:56;1;-122.4694;1.1381586;-122.739815;1.052363
2019-11-01T16:50:56;1;-122.44051;1.2073684;-122.86195;1.0738425
2019-11-01T16:55:56;1;-122.34096;1.0309361;-122.51166;0.9885488
2019-11-01T17:00:56;1;-122.47723;1.05988;-122.70053;0.98984796
2019-11-01T17:05:56;1;-122.4594;1.1403366;-122.49233;1.1357961
2019-11-01T17:10:56;1;-122.037094;1.4582982;-122.631355;1.0303735
2019-11-01T17:15:56;1;-122.40459;1.0429337;-122.63057;0.9788921
2019-11-01T17:20:56;1;-121.23303;1.4731905;-121.55547;1.3702621
2019-11-01T17:25:56;1;-115.9468;4.084927;-115.19453;4.614752
2019-11-01T17:30:56;1;-111.56807;6.4441447;-111.73206;6.4506083
2019-11-01T17:35:56;1;-118.4084;2.9797654;-119.321014;2.6532762
2019-11-01T17:40:56;1;-121.26956;1.8246995;-121.04241;1.896152
2019-11-01T17:45:56;1;-118.51039;3.3883507;-119.56131;2.9008298
2019-11-01T17:50:56;1;-121.85227;1.1245757;-121.66907;1.1614268
2019-11-01T17:55:56;1;-121.797714;1.1466004;-121.961784;1.1979903
2019-11-01T18:00:56;1;-121.8103;1.1601535;-121.96765;1.1420724
2019-11-01T18:05:56;1;-121.447975;1.2929231;-122.00087;1.1414876
2019-11-01T18:10:56;1;-121.48492;1.4427629;-122.24982;1.0919139
2019-11-01T18:15:56;1;-121.47715;1.3076545;-122.04777;1.0681295
2019-11-01T18:20:56;1;-121.407646;1.4961594;-122.20188;1.0541792
2019-11-01T18:25:56;1;-121.53331;1.332447;-122.123535;0.9762679
2019-11-01T18:30:56;1;-121.65734;1.510932;-122.40196;1.0738144
2019-11-01T18:35:56;1;-121.584564;1.2676026;-122.0142;1.0999874
2019-11-01T18:40:56;1;-121.14767;1.78126;-122.070984;1.3201256
2019-11-01T18:45:56;1;-114.07493;5.613238;-122.29694;1.089393
2019-11-01T18:50:56;1;-109.48568;7.7220707;-122.42451;0.9949441
2019-11-01T18:55:56;1;-113.25326;5.8017635;-122.193504;1.013317
2019-11-01T19:00:56;1;-116.482124;4.1284914;-121.96294;1.1368245
2019-11-01T19:05:56;1;-118.918846;3.0860515;-122.222176;1.0486284
2019-11-01T19:10:56;1;-121.7412;1.2350332;-122.162186;1.0858628
2019-11-01T19:15:56;1;-121.70746;1.4753811;-122.24484;1.3087087
2019-11-01T19:20:56;1;-121.85722;1.3414943;-122.49613;1.0371507
2019-11-01T19:25:56;1;-121.24917;1.6230224;-122.43305;1.0766286
2019-11-01T19:30:56;1;-121.478386;1.5436013;-122.03618;1.4131025
2019-11-01T19:35:56;1;-121.66481;1.5295844;-122.39759;1.156133
2019-11-01T19:40:56;1;-121.60729;1.5023118;-122.53601;1.1100966
2019-11-01T19:45:56;1;-121.78444;1.3329175;-122.33549;1.1750747
2019-11-01T19:50:56;1;-121.92252;1.3385621;-122.47444;1.1830722
2019-11-01T19:55:56;1;-121.32181;1.5861185;-121.96116;1.1400213
2019-11-01T20:00:56;1;-122.054985;1.1812154;-122.31972;1.1407534
2019-11-01T20:05:56;1;-121.72596;1.3045588;-122.351814;1.0279804
2019-11-01T20:10:56;1;-121.33742;1.6107942;-122.101036;1.1512347
2019-11-01T20:15:56;1;-121.25396;1.6917933;-122.173065;1.1029063
2019-11-01T20:20:56;1;-120.83005;1.813322;-122.066055;1.1721008
2019-11-01T20:25:56;1;-121.584785;1.3676527;-121.822464;1.3833493
2019-11-01T20:30:56;1;-121.88876;1.4052042;-122.238686;1.3498645
2019-11-01T20:35:56;1;-122.39456;1.534525;-122.48436;1.2200191
2019-11-01T20:40:56;1;-122.563835;1.2783972;-122.646126;1.2998769
2019-11-01T20:45:56;1;-122.540665;1.2554349;-122.92538;1.2173936
2019-11-01T20:50:56;1;-122.84336;1.1632829;-122.93344;1.1394968
2019-11-01T20:55:56;1;-122.32106;1.1674937;-122.53258;1.1605217
2019-11-01T21:00:56;1;-122.23458;1.1076602;-122.431015;1.0969906
2019-11-01T21:05:56;1;-122.162285;1.1841527;-122.32332;1.0713522
2019-11-01T21:10:56;1;-122.08731;1.2547246;-122.57269;1.1902778
2019-11-01T21:15:56;1;-122.27878;1.2250488;-122.41675;1.2237802
2019-11-01T21:20:56;1;-121.97516;1.1221015;-122.066864;1.1268831
2019-11-01T21:25:56;1;-122.2704;1.1430373;-122.588455;1.1031094
2019-11-01T21:30:56;1;-122.52118;1.0558633;-122.507416;1.09584
2019-11-01T21:35:56;1;-122.509415;1.1579239;-122.38827;1.1964506
2019-11-01T21:40:56;1;-122.09418;1.013536;-122.29819;0.9827038
2019-11-01T21:45:56;1;-122.42968;1.0368855;-122.68381;0.9943409
2019-11-01T21:50:56;1;-122.387985;1.3210888;-122.51444;1.3458129
2019-11-01T21:55:56;1;-122.397026;1.3177599;-122.70281;1.1858348
2019-11-01T22:00:56;1;-122.478584;1.2234412;-122.41327;1.321676
2019-11-01T22:05:56;1;-122.12537;1.2606883;-122.07712;1.3542848
2019-11-01T22:10:56;1;-122.28622;1.3649882;-122.33536;1.4034694
2019-11-01T22:15:56;1;-122.06886;1.5118368;-122.38754;1.3044034
2019-11-01T22:20:56;1;-122.11433;1.1887691;-122.35398;1.1820487
2019-11-01T22:25:56;1;-122.13495;1.2207953;-122.446304;1.0734036
2019-11-01T22:30:56;1;-122.051994;1.4573071;-122.7762;1.0983559
2019-11-01T22:35:56;1;-121.99733;1.2512977;-122.1329;1.1763527
2019-11-01T22:40:56;1;-121.88556;1.1890911;-122.23335;1.1774733
2019-11-01T22:45:56;1;-122.17089;1.2709177;-122.35468;1.3428408
2019-11-01T22:50:56;1;-122.352486;1.2609626;-122.44714;1.3093761
2019-11-01T22:55:56;1;-122.42374;1.13801;-122.69403;1.012905
2019-11-01T23:00:56;1;-121.86358;1.8480161;-122.67743;1.1933024
2019-11-01T23:05:56;1;-121.1646;1.784607;-122.47695;1.130367
2019-11-01T23:10:56;1;-122.35797;1.2392132;-122.708;1.0745138
2019-11-01T23:15:56;1;-122.0734;1.3134979;-122.47304;1.2412608
2019-11-01T23:20:56;1;-122.14181;1.3872843;-122.51326;1.2872173
2019-11-01T23:25:56;1;-121.75862;1.6397556;-122.682274;1.2785414
2019-11-01T23:30:56;1;-122.635544;1.4586401;-122.913246;1.3739609
2019-11-01T23:35:56;1;-121.836716;1.451544;-121.75999;1.543265
2019-11-01T23:40:56;1;-121.788;1.3734454;-122.05325;1.0833387
2019-11-01T23:45:56;1;-121.80928;1.4813001;-122.4306;1.271098
2019-11-01T23:50:56;1;-122.22645;1.1130407;-122.42936;1.0106276
2019-11-01T23:55:56;1;-122.0941;1.2166219;-122.3882;1.1065583
2019-11-02T00:00:56;1;-122.35866;1.1267593;-122.68692;0.9340343
2019-11-02T00:05:56;1;-122.32612;1.0472928;-122.42497;1.0695977
2019-11-02T00:10:56;1;-122.02094;1.2033044;-122.50439;1.0071683
2019-11-02T00:15:56;1;-122.487595;1.1279039;-122.79859;1.079595
2019-11-02T00:20:56;1;-120.01672;2.3497267;-122.05572;1.1420176
2019-11-02T00:25:56;1;-121.8753;1.1405767;-122.31785;1.008692
2019-11-02T00:30:56;1;-122.11745;1.1173042;-122.122536;1.1868995
2019-11-02T00:35:56;1;-122.00037;1.2548404;-122.19792;1.183511
2019-11-02T00:40:56;1;-122.15323;1.156896;-122.15447;1.1704664
2019-11-02T00:45:56;1;-122.34097;1.1398271;-122.41147;1.0792469
2019-11-02T00:50:56;1;-122.12507;1.1868454;-122.43798;0.99522513
2019-11-02T00:55:56;1;-122.270515;1.0630211;-122.38336;1.014497
2019-11-02T01:00:56;1;-122.08417;1.1254629;-122.33912;1.048903
2019-11-02T01:05:56;1;-121.9721;1.1494551;-122.324005;1.0284747
2019-11-02T01:10:56;1;-121.77764;1.1738905;-122.14637;1.0381265
2019-11-02T01:15:56;1;-121.66379;1.150828;-121.92565;1.0159
2019-11-02T01:20:56;1;-121.92269;1.1480135;-121.98274;1.1734389
2019-11-02T01:25:56;1;-121.713326;1.1704936;-121.894424;1.1958816
2019-11-02T01:30:56;1;-121.80633;1.1952261;-122.1034;1.1304455
2019-11-02T01:35:56;1;-121.67891;1.4275914;-121.96672;1.4167786
2019-11-02T01:40:56;1;-121.322;1.4995594;-121.666855;1.3280374
2019-11-02T01:45:56;1;-122.05302;1.3539463;-122.220726;1.1830604
2019-11-02T01:50:56;1;-120.857185;1.888428;-121.77616;1.3073119
2019-11-02T01:55:56;1;-122.13229;1.4967649;-122.741394;1.3336648
2019-11-02T02:00:56;1;-122.40263;1.4472303;-122.57969;1.5368041
2019-11-02T02:05:56;1;-122.619804;1.478174;-122.91485;1.3298508
2019-11-02T02:10:56;1;-122.36257;1.6174316;-122.83152;1.2094922
2019-11-02T02:15:56;1;-122.243355;1.1676028;-122.510376;1.1074792
2019-11-02T02:20:56;1;-121.88846;1.412431;-122.107544;1.3837717
2019-11-02T02:25:56;1;-121.28345;2.4164553;-122.94086;1.4825746
2019-11-02T02:30:56;1;-122.55372;1.5825044;-122.08461;1.8513992
2019-11-02T02:35:56;1;-122.77717;1.6585968;-123.090324;1.4892408
2019-11-02T02:40:56;1;-123.24343;1.2480758;-123.404755;1.1602268
2019-11-02T02:45:56;1;-122.83254;1.1649308;-122.73753;1.1875815
2019-11-02T02:50:56;1;-122.85065;1.2188118;-123.16068;1.2821923
2019-11-02T02:55:56;1;-122.71142;1.1946214;-122.63998;1.251703
2019-11-02T03:00:56;1;-122.37532;1.1187582;-122.45367;1.1742907
2019-11-02T03:05:56;1;-122.29439;1.1462115;-122.49673;1.0428997
2019-11-02T03:10:56;1;-121.59778;1.6933643;-121.08431;2.0683715
2019-11-02T03:15:56;1;-121.561516;1.6806444;-121.71401;1.6762106
2019-11-02T03:20:56;1;-122.53056;1.1772454;-122.679596;1.1798767
2019-11-02T03:25:56;1;-123.14471;1.1895798;-123.21153;1.2443526
2019-11-02T03:30:56;1;-122.88985;1.395927;-122.79082;1.5504959
2019-11-02T03:35:56;1;-123.30388;1.2234577;-123.4003;1.1986811
2019-11-02T03:40:56;1;-122.494484;1.6611817;-123.25346;1.2668717
2019-11-02T03:45:56;1;-122.78069;1.2593542;-123.1502;1.1825562
2019-11-02T03:50:56;1;-123.205864;1.2042272;-123.21593;1.2151654
2019-11-02T03:55:56;1;-122.819954;1.3657805;-123.21304;1.2584713
2019-11-02T04:00:56;1;-122.163055;1.0730008;-122.15025;1.0690279
2019-11-02T04:05:56;1;-122.15739;1.1954526;-122.18697;1.3308209
2019-11-02T04:10:56;1;-122.21472;1.2544508;-122.371735;0.99933165
2019-11-02T04:15:56;1;-122.44008;1.1747226;-122.6873;1.1278803
2019-11-02T04:20:56;1;-122.54339;1.1174783;-122.68828;1.102119
2019-11-02T04:25:56;1;-122.27877;1.1908141;-122.465126;1.1347078
2019-11-02T04:30:56;1;-122.39885;1.1736989;-122.52993;1.180248
2019-11-02T04:35:56;1;-121.61141;1.6458424;-122.25977;1.3816822
2019-11-02T04:40:56;1;-122.087814;1.3735229;-122.5257;1.2031354
2019-11-02T04:45:56;1;-122.22869;1.2143726;-122.540886;1.0822285
2019-11-02T04:50:56;1;-122.3735;1.227868;-122.34407;1.3051072
2019-11-02T04:55:56;1;-122.290184;1.2186975;-122.47358;1.2132611
2019-11-02T05:00:56;1;-122.031715;1.3379444;-122.10249;1.4014769
2019-11-02T05:05:56;1;-122.20853;1.1738238;-122.41532;1.0862935
2019-11-02T05:10:56;1;-122.202126;1.2674785;-122.36445;1.262413
2019-11-02T05:15:56;1;-122.165405;1.2942007;-122.16999;1.3228859
2019-11-02T05:20:56;1;-122.70724;1.373643;-122.880196;1.185194
2019-11-02T05:25:56;1;-122.56551;1.0816283;-122.751305;1.0416931
2019-11-02T05:30:56;1;-122.57887;1.2405698;-122.83221;1.1560142
2019-11-02T05:35:56;1;-122.38512;1.1630121;-122.68162;1.1561548
2019-11-02T05:40:56;1;-122.34152;1.1146661;-122.42545;1.0659343
2019-11-02T05:45:56;1;-122.19513;1.1491773;-122.56638;0.98477525
2019-11-02T05:50:56;1;-121.211525;1.8407353;-122.009254;1.4327087
2019-11-02T05:55:56;1;-121.44826;1.6145775;-122.48077;1.0412042
2019-11-02T06:00:56;1;-119.9389;2.5625033;-120.16787;2.7757716
2019-11-02T06:05:56;1;-119.58495;3.0421257;-122.52482;1.2811829
2019-11-02T06:10:56;1;-114.9314;5.3307385;-122.42797;1.2446544
2019-11-02T06:15:56;1;-113.77651;5.744775;-122.38142;1.2122356
2019-11-02T06:20:56;1;-94.53242;15.293188;-122.47584;1.0531881